IR4UCA Weather Reports


Display with metric or nautical units.
time (UTC)temp
F
wind
direction
speed
MPH
gust
MPH
rain 1hr
in
rain 24hr
in
rain mn
in
humidity
%
barometer
mb
20260507194943 65 107 3.0 6.0 0.00 0.00 0.00 68 1013.0
20260507193943 66 116 2.0 7.0 0.00 0.00 0.00 68 1012.8
20260507192944 66 120 2.0 6.0 0.00 0.00 0.00 67 1012.7
20260507191943 67 109 3.0 7.0 0.00 0.00 0.00 66 1012.7
20260507190945 67 123 4.0 10.0 0.00 0.00 0.00 65 1012.6
20260507184943 68 111 4.0 10.0 0.00 0.00 0.00 64 1012.3
20260507183944 69 102 4.0 9.0 0.00 0.00 0.00 62 1012.2
20260507182947 69 107 4.0 12.0 0.00 0.00 0.00 61 1012.2
20260507181944 70 120 4.0 9.0 0.00 0.00 0.00 59 1012.1
20260507180945 70 134 2.0 7.0 0.00 0.00 0.00 58 1011.9
20260507174944 71 145 1.0 10.0 0.00 0.00 0.00 57 1011.7
20260507173945 72 116 5.0 10.0 0.00 0.00 0.00 56 1011.6
20260507172944 72 134 2.0 9.0 0.00 0.00 0.00 55 1011.7
20260507171944 73 118 3.0 7.0 0.00 0.00 0.00 54 1011.6
20260507170944 73 123 3.0 6.0 0.00 0.00 0.00 51 1011.7
20260507165947 73 162 3.0 7.0 0.00 0.00 0.00 51 1011.6
20260507164944 73 138 2.0 10.0 0.00 0.00 0.00 51 1011.5
20260507163944 73 134 4.0 10.0 0.00 0.00 0.00 51 1011.4
20260507162948 73 131 3.0 10.0 0.00 0.00 0.00 51 1011.5
20260507161943 73 144 4.0 9.0 0.00 0.00 0.00 51 1011.5
20260507160943 73 125 5.0 11.0 0.00 0.00 0.00 51 1011.5
20260507154944 73 151 5.0 12.0 0.00 0.00 0.00 52 1011.6
20260507153943 73 111 3.0 9.0 0.00 0.00 0.00 52 1011.6
20260507152944 73 133 6.0 11.0 0.00 0.00 0.00 52 1011.8
20260507151943 73 111 1.0 5.0 0.00 0.00 0.00 50 1011.9
20260507150944 73 109 2.0 3.0 0.00 0.00 0.00 49 1011.8
20260507144943 73 85 2.0 6.0 0.00 0.00 0.00 46 1011.9
20260507143943 74 121 2.0 15.0 0.00 0.00 0.00 46 1011.8
20260507142944 75 44 5.0 9.0 0.00 0.00 0.00 43 1011.7
20260507141944 76 354 3.0 5.0 0.00 0.00 0.00 42 1011.7
20260507140946 76 248 3.0 5.0 0.00 0.00 0.00 42 1011.9
20260507135944 75 197 2.0 5.0 0.00 0.00 0.00 42 1011.9
20260507134943 75 157 1.0 7.0 0.00 0.00 0.00 43 1011.9
20260507133943 74 255 2.0 5.0 0.00 0.00 0.00 42 1011.9
20260507132944 73 73 1.0 5.0 0.00 0.00 0.00 43 1012.0
20260507131943 73 17 4.0 9.0 0.00 0.00 0.00 44 1012.0
20260507130944 73 30 1.0 7.0 0.00 0.00 0.00 44 1012.1
20260507125944 74 37 5.0 9.0 0.00 0.00 0.00 42 1012.1
20260507124943 73 288 1.0 9.0 0.00 0.00 0.00 44 1012.2
20260507123944 73 123 2.0 7.0 0.00 0.00 0.00 43 1012.3
20260507121943 72 313 1.0 5.0 0.00 0.00 0.00 46 1012.4
20260507115943 71 292 4.0 7.0 0.00 0.01 0.00 47 1012.7
20260507114943 70 18 2.0 9.0 0.00 0.02 0.00 47 1012.8
20260507113944 70 0 5.0 12.0 0.00 0.02 0.00 48 1012.8
20260507111943 71 11 1.0 6.0 0.00 0.02 0.00 46 1013.0
20260507110944 71 0 5.0 9.0 0.00 0.02 0.00 47 1013.0
20260507104943 70 61 5.0 9.0 0.00 0.02 0.00 49 1013.2
20260507103944 69 18 2.0 7.0 0.00 0.02 0.00 51 1013.3
20260507101943 70 0 2.0 6.0 0.00 0.02 0.00 47 1013.3
20260507100943 69 120 2.0 6.0 0.00 0.02 0.00 49 1013.5
20260507095943 69 45 2.0 4.0 0.00 0.02 0.00 52 1013.5
20260507094945 69 63 2.0 6.0 0.00 0.02 0.00 52 1013.5
20260507093943 68 79 3.0 7.0 0.00 0.02 0.00 52 1013.5
20260507092945 68 117 2.0 9.0 0.00 0.02 0.00 52 1013.5
20260507091943 67 106 2.0 6.0 0.00 0.02 0.00 51 1013.6
20260507090943 67 65 5.0 7.0 0.00 0.02 0.00 53 1013.6
20260507084943 67 75 3.0 5.0 0.00 0.02 0.00 52 1013.4
20260507083945 66 125 2.0 6.0 0.00 0.03 0.00 56 1013.4
20260507082945 65 214 0.0 5.0 0.00 0.04 0.00 56 1013.4
20260507081943 64 219 2.0 6.0 0.00 0.05 0.00 60 1013.3
20260507080943 64 219 3.0 7.0 0.00 0.05 0.00 60 1013.4
20260507073943 62 180 3.0 9.0 0.00 0.07 0.00 64 1013.1
20260507072943 62 206 3.0 9.0 0.00 0.08 0.00 64 1013.1
20260507071943 62 192 4.0 10.0 0.00 0.10 0.00 65 1013.0
20260507070943 61 224 4.0 6.0 0.00 0.11 0.00 65 1013.0
20260507064943 60 210 4.0 10.0 0.00 0.11 0.00 66 1012.9
20260507063944 60 209 5.0 11.0 0.00 0.12 0.00 67 1012.8
20260507062946 59 190 4.0 10.0 0.00 0.15 0.00 67 1012.8
20260507060943 59 209 2.0 5.0 0.00 0.18 0.00 69 1012.6
20260507054943 58 217 2.0 6.0 0.00 0.24 0.00 71 1012.4
20260507053943 57 189 1.0 3.0 0.00 0.25 0.00 74 1012.3
20260507052947 56 189 1.0 5.0 0.00 0.26 0.00 76 1012.1
20260507051944 55 197 3.0 5.0 0.00 0.27 0.00 78 1012.1
20260507044944 53 203 1.0 2.0 0.00 0.30 0.00 86 1011.9
20260507043944 53 203 0.0 4.0 0.00 0.31 0.00 85 1011.7